User: anonymous   Login
Location: Fontevrault
(47.1823°N, 0.0493°E)
Time: 13:48:25
(UTC+00:00)
Language:

Meteor 2-10 - Orbit

View from above orbital plane
View from above orbital plane
View from above satellite
View from above satellite

Ground track
Ground track

The orbit data is extracted from the following two-line orbital elements,

1 14452U 83109A   21262.87510658  .00000074  00000-0  24415-4 0  9991
2 14452  81.1605 305.8965 0090613 187.0157 172.9763 14.26539729970530
Epoch (UTC): 19 September 2021 21:00:09
Eccentricity: 0.0090613
inclination: 81.1605°
perigee height: 738 km
apogee height: 868 km
right ascension of ascending node: 305.8965°
argument of perigee: 187.0157°
revolutions per day: 14.26539729
mean anomaly at epoch: 172.9763°
orbit number at epoch: 97053

The dashed part of the orbit path shows where the satellite is in the earth's shadow,  

DLR